Change the Weather History Date:

Friday, January 10, 2014

  Actual Average Record
Temperature  
Mean Temperature 32 °F -  
Max Temperature 35 °F 36 °F 57 °F (2000)
Min Temperature 28 °F 23 °F 1 °F (2004)
Degree Days  
Heating Degree Days 34    
Moisture  
Dew Point 26 °F    
Average Humidity 77    
Maximum Humidity 89    
Minimum Humidity 56    
Precipitation  
Precipitation 0.12 in - - ()
Sea Level Pressure  
Sea Level Pressure 30.42 in    
Wind  
Wind Speed 2 mph (North)    
Max Wind Speed 6 mph    
Max Gust Speed -    
Visibility 4 miles    
Events Rain , Snow    
Averages and records for this station are not official NWS values.
T = Trace of Precipitation, MM = Missing Value Source: NWS Daily Summary

Daily Weather History Graph

Daily Weather History Graph

Search for Another Location

Airport or City:

Trip Planner

Search our weather history database for the weather conditions in past years. The results will help you decide how hot, cold, wet, or windy it might be!

Date:

Astronomy

Jan. 10, 2014 Rise Set
Actual Time 7:20 AM EST 4:47 PM EST
Civil Twilight 6:49 AM EST 5:18 PM EST
Nautical Twilight 6:15 AM EST 5:52 PM EST
Astronomical Twilight 5:42 AM EST 6:25 PM EST
Moon 12:50 PM EST (1/10) 2:24 AM EST (1/10)
Length of Visible Light 10h 28m
Length of Day
9h 27m
Waxing Gibbous, 75% of the Moon is Illuminated
Jan 10
Waxing Gibbous
Jan 15
Full
Jan 24
Last Quarter
Jan 30
New
Feb 6
First Quarter

Hourly Weather History & Observations

Time (EST) Temp. Windchill Dew Point Humidity Pressure Visibility Wind Dir Wind Speed Gust Speed Precip Events Conditions
12:51 AM 28.0 °F - 18.0 °F 66% 30.58 in 10.0 mi Calm Calm - N/A   Mostly Cloudy
1:51 AM 28.9 °F 25.2 °F 17.1 °F 61% 30.57 in 10.0 mi NNE 3.5 mph - N/A   Overcast
2:11 AM 28.4 °F 24.6 °F 15.8 °F 59% 30.57 in 10.0 mi North 3.5 mph - N/A   Overcast
2:51 AM 28.9 °F 23.9 °F 15.1 °F 56% 30.57 in 10.0 mi NNE 4.6 mph - N/A   Overcast
3:03 AM 28.4 °F 24.6 °F 15.8 °F 59% 30.57 in 10.0 mi NNE 3.5 mph - N/A   Overcast
3:51 AM 30.0 °F - 16.0 °F 56% 30.56 in 10.0 mi Calm Calm - N/A   Overcast
4:51 AM 28.9 °F - 16.0 °F 58% 30.50 in 9.0 mi Calm Calm - 0.00 in Snow Light Snow
5:51 AM 30.0 °F - 18.0 °F 61% 30.50 in 10.0 mi Calm Calm - 0.00 in   Overcast
6:51 AM 30.9 °F 27.5 °F 19.0 °F 61% 30.50 in 10.0 mi North 3.5 mph - N/A   Overcast
7:15 AM 30.2 °F 26.7 °F 19.4 °F 64% 30.49 in 10.0 mi North 3.5 mph - N/A   Overcast
7:51 AM 30.9 °F 27.5 °F 19.9 °F 64% 30.48 in 7.0 mi North 3.5 mph - N/A   Overcast
8:51 AM 32.0 °F - 21.9 °F 66% 30.50 in 7.0 mi Calm Calm - 0.00 in Snow Light Snow
9:12 AM 30.2 °F 24.3 °F 23.0 °F 75% 30.50 in 2.0 mi NNW 5.8 mph - 0.01 in Snow Light Snow
9:24 AM 30.2 °F 25.4 °F 23.0 °F 75% 30.50 in 1.5 mi North 4.6 mph - 0.01 in Snow Light Snow
9:30 AM 30.2 °F 26.7 °F 24.8 °F 80% 30.49 in 0.8 mi North 3.5 mph - 0.02 in Snow Light Snow
9:51 AM 30.0 °F 26.5 °F 25.0 °F 82% 30.50 in 0.8 mi North 3.5 mph - 0.04 in Snow Light Snow
10:12 AM 30.2 °F 26.7 °F 24.8 °F 80% 30.49 in 1.5 mi NNW 3.5 mph - 0.02 in Snow Light Snow
10:33 AM 30.2 °F 26.7 °F 26.6 °F 86% 30.47 in 2.0 mi North 3.5 mph - 0.03 in Snow Light Snow
10:46 AM 30.2 °F 25.4 °F 26.6 °F 86% 30.48 in 3.0 mi NW 4.6 mph - 0.04 in Rain Light Freezing Rain
10:51 AM 30.9 °F 27.5 °F 26.1 °F 82% 30.48 in 3.0 mi North 3.5 mph - 0.04 in Rain Light Freezing Rain
11:30 AM 32.0 °F 28.7 °F 26.6 °F 80% 30.45 in 3.0 mi NNW 3.5 mph - 0.00 in Rain Light Rain
11:51 AM 33.1 °F 30.0 °F 27.0 °F 78% 30.43 in 3.0 mi North 3.5 mph - 0.00 in   Haze
12:51 PM 33.1 °F 30.0 °F 27.0 °F 78% 30.40 in 3.0 mi North 3.5 mph - N/A   Haze
1:31 PM 33.8 °F - 28.4 °F 81% 30.39 in 4.0 mi Calm Calm - N/A   Haze
1:51 PM 34.0 °F 31.0 °F 28.0 °F 79% 30.38 in 4.0 mi North 3.5 mph - N/A   Haze
2:05 PM 33.8 °F - 28.4 °F 81% 30.38 in 4.0 mi Calm Calm - N/A   Haze
2:47 PM 33.8 °F - 28.4 °F 81% 30.37 in 2.5 mi Calm Calm - 0.00 in Rain Light Rain
2:51 PM 34.0 °F - 28.9 °F 82% 30.37 in 2.0 mi Calm Calm - 0.00 in Rain Light Rain
3:01 PM 35.6 °F - 28.4 °F 75% 30.37 in 2.5 mi Calm Calm - 0.00 in   Haze
3:13 PM 35.6 °F - 28.4 °F 75% 30.37 in 1.8 mi Calm Calm - 0.00 in   Haze
3:51 PM 34.0 °F - 30.0 °F 85% 30.36 in 1.5 mi Calm Calm - 0.00 in   Overcast
4:51 PM 34.0 °F - 30.9 °F 89% 30.35 in 2.0 mi Calm Calm - 0.00 in   Overcast
5:01 PM 35.6 °F - 30.2 °F 81% 30.35 in 1.5 mi Calm Calm - N/A   Overcast
5:41 PM 35.6 °F 32.8 °F 30.2 °F 81% 30.35 in 1.5 mi North 3.5 mph - 0.00 in   Overcast
5:51 PM 35.1 °F 32.2 °F 30.9 °F 85% 30.34 in 1.5 mi NNE 3.5 mph - 0.00 in   Overcast
6:51 PM 35.1 °F 32.2 °F 32.0 °F 89% 30.34 in 1.5 mi North 3.5 mph - N/A   Overcast
7:51 PM 35.1 °F 31.0 °F 32.0 °F 89% 30.32 in 1.0 mi North 4.6 mph - 0.01 in   Overcast
8:51 PM 35.1 °F - 32.0 °F 89% 30.30 in 1.5 mi Calm Calm - N/A   Overcast
9:51 PM 35.1 °F 31.0 °F 32.0 °F 89% 30.29 in 1.2 mi North 4.6 mph - 0.01 in   Overcast
10:02 PM 35.6 °F 31.7 °F 32.0 °F 87% 30.28 in 1.8 mi North 4.6 mph - N/A   Overcast
10:09 PM 35.6 °F 32.8 °F 32.0 °F 87% 30.28 in 2.0 mi North 3.5 mph - N/A   Overcast
10:18 PM 35.6 °F 32.8 °F 32.0 °F 87% 30.27 in 1.8 mi North 3.5 mph - 0.00 in Rain Light Rain
10:27 PM 35.6 °F 32.8 °F 32.0 °F 87% 30.27 in 2.5 mi NNE 3.5 mph - 0.00 in Rain Light Rain
10:51 PM 35.1 °F 31.0 °F 32.0 °F 89% 30.26 in 1.8 mi North 4.6 mph - 0.00 in Rain Light Rain
11:51 PM 35.1 °F 32.2 °F 32.0 °F 89% 30.22 in 1.8 mi North 3.5 mph - 0.02 in   Light Drizzle